Regional Weather Roundup
Issued by NWS

Home | Current Version | Previous Version | Graphics & Text | Print | Product List | Glossary On
Versions: 1 2 3 4 5 6 7 8 9 10 11 12 13 14 15 16 17 18 19 20 21 22 23 24 25 26 27 28 29 30 31 32 33 34 35 36 37 38 39 40 41 42 43 44 45 46 47 48 49 50
000
ASUS43 KMPX 281101
RWRMN
WEATHER ROUNDUP FOR MINNESOTA
NATIONAL WEATHER SERVICE TWIN CITIES/CHANHASSEN MN
600 AM CDT THU AUG 28 2014


NOTE: "FAIR" INDICATES FEW OR NO CLOUDS BELOW 12,000 FEET WITH NO
SIGNIFICANT WEATHER AND/OR OBSTRUCTIONS TO VISIBILITY. N/A MEANS
CURRENT SKY AND/OR WEATHER CONDITIONS ARE NOT AVAILABLE.

MNZ060>063-068>070-281200-
   Twin Cities Metro

CITY           SKY/WX    TMP DP  RH WIND       PRES   REMARKS
TWIN CITIES    PTCLDY    62  56  80 SE9       30.08F
ST PAUL        CLEAR     61  56  83 SE8       30.08F
CRYSTAL        CLEAR     63  55  75 SE5       30.06F
BLAINE         CLEAR     63  57  82 CALM      30.08S
LAKEVILLE      PTCLDY    54  54 100 CALM      30.08S
EDEN PRAIRIE   CLEAR     61  58  90 E5        30.07S
SOUTH ST PAUL  CLEAR     61  55  80 S5        30.08F
LAKE ELMO      FAIR      59  54  82 SE5       30.09F
$$
MNZ001>005-007-008-013>017-022>024-027-028-281200-
   Northwest Minnesota

CITY           SKY/WX    TMP DP  RH WIND       PRES   REMARKS
BEMIDJI        CLOUDY    53  52  95 CALM      30.07S
HALLOCK        CLEAR     59  55  88 S9        29.98F
ROSEAU         CLEAR     55  50  82 S6        30.03S
WARROAD        CLEAR     52  48  87 S3        30.04F
THIEF RVR FALL CLEAR     55  55 100 SE7       30.02F
CROOKSTON      PTCLDY    61  57  88 SE8       30.01F
FOSSTON        CLOUDY    57  55  94 SE5       30.05S
DETROIT LAKES  CLOUDY    61  59  94 SE8       30.05F
MOORHEAD       MOCLDY    64  64 100 SE7       30.01S
PARK RAPIDS    PTCLDY    56  55  97 SE5       30.07S
MAHNOMEN       CLOUDY    60  57  91 SE7       30.03F
$$
MNZ006-009>011-018-025>026-281200-
   North Central Minnesota

CITY           SKY/WX    TMP DP  RH WIND       PRES   REMARKS
BAUDETTE       MOCLDY    49  47  93 SE3       30.05F
FLAG ISLAND    PTCLDY    63  59  88 SW6       30.02F
INTL FALLS     MOCLDY    45  44  97 SE3       30.08F
WASKISH        PTCLDY    54  52  94 CALM      30.07S
BIG FORK       FOG       43  43 100 CALM      30.10S VSB 1/4
LONGVILLE      CLOUDY    55  55 100 CALM      30.08S
GRAND RAPIDS   MOCLDY    48  46  93 CALM      30.10S
CRANE LAKE     CLEAR     39  39 100 CALM      30.13S
ORR            CLEAR     43  39  87 CALM      30.09S
COOK           CLEAR     41  39  93 CALM      30.11S
WALKER         CLOUDY    56  55  95 CALM      30.08R
$$
MNZ012-019>021-037-281200-
   Northeast Minnesota

CITY           SKY/WX    TMP DP  RH WIND       PRES   REMARKS
DULUTH         CLEAR     53  49  86 CALM      30.12S
ELY            CLEAR     41  39  93 CALM      30.13S
HIBBING        FOG       46  44  93 CALM      30.12S VSB 1/4
EVELETH        FOG       45  45 100 CALM      30.12F VSB 1/4
DULUTH HARBOR  CLEAR     57  55  94 CALM      30.13R
TWO HARBORS    CLEAR     46  41  81 CALM      30.11S
SILVER BAY     CLEAR     45  45 100 CALM      30.12R
GRAND MARAIS     N/A     51  49  92 CALM      30.13S
G MARAIS ARPRT CLEAR     45  43  93 CALM      30.15S
$$
MNZ029>031-032-039>041-046>048-054>057-064-281200-
   West Central Minnesota

CITY           SKY/WX    TMP DP  RH WIND       PRES   REMARKS
FERGUS FALLS   MOCLDY    64  57  77 SE9       30.02F
WHEATON        MOCLDY    57  55  94 E6        30.02F
MORRIS         MOCLDY    63  61  94 SE8       30.02S
ALEXANDRIA     MOCLDY    60  57  89 SE9       30.06F
ELBOW LAKE     MOCLDY    61  59  91 SE8       30.03S
WADENA         CLOUDY    59  55  88 SE5       30.05F
GLENWOOD       MOCLDY    61  59  94 E7        30.06F
APPLETON       CLOUDY    64  59  82 SE6       30.01S
BENSON         MOCLDY    63  57  82 S7        30.03F
ORTONVILLE     CLOUDY    63  57  82 SE7       30.00F
MADISON        MOCLDY    66  61  82 E6        30.01S
WILLMAR        FAIR      63  57  82 E8        30.05F
$$
MNZ033>034-036-042>043-049>051-058-059-281200-
   Central Minnesota

CITY           SKY/WX    TMP DP  RH WIND       PRES   REMARKS
ST CLOUD       CLEAR     61  56  83 SE5       30.07F
SAUK CENTRE    FAIR      59  57  94 E6        30.06F
PAYNESVILLE    MOCLDY    58  56  94 E5        30.06F
AITKIN         MOCLDY    57  52  82 CALM      30.07F
PINE RIVER     MOCLDY    57  57 100 SE3       30.10F
BRAINERD       CLOUDY    60  55  83 S3        30.08F
STAPLES        CLOUDY    57  55  94 SE3       30.06F
LONG PRAIRIE   CLOUDY    59  55  88 SE3       30.07S
LITTLE FALLS   PTCLDY    55  52  88 CALM      30.08S
LITCHFIELD       N/A     61  61 100 E5        30.07S
BUFFALO        CLEAR     60  55  84 CALM      30.08F
MAPLE LAKE     CLEAR     62  59  89 CALM      30.08S
$$
MNZ037-044-045-052-053-281200-
   East Central Minnesota

CITY           SKY/WX    TMP DP  RH WIND       PRES   REMARKS
PRINCETON      CLEAR     61  55  82 E2        30.08F
MORA           PTCLDY    55  52  88 CALM      30.10F
CAMBRIDGE      CLEAR     63  52  67 CALM      30.07F
RUSH CITY      MOCLDY    57  55  90 CALM      30.09F
MOOSE LAKE     FOG       46  46 100 CALM      30.09S VSB 3/4
HINCKLEY       PTSUNNY   55  54  94 CALM      30.10F
CLOQUET        FOG       48  46  93 CALM      30.12S VSB 1
MCGREGOR       PTCLDY    52  50  93 CALM      30.10F
$$
MNZ071>073-080-081-089-090-097-098-281200-
   Southwest Minnesota

CITY           SKY/WX    TMP DP  RH WIND       PRES   REMARKS
MONTEVIDEO     CLOUDY    63  61  94 S7        30.03F
GRANITE FALLS  MOCLDY    63  60  90 E6        30.04F
CANBY          CLOUDY    63  61  93 E3        30.02S
MARSHALL       CLOUDY    64  57  77 SE9       30.00F
REDWOOD FALLS  MOCLDY    62  59  90 SE8       30.04S
OLIVIA         PTCLDY    61  55  82 E7        30.03F
PIPESTONE      CLOUDY    64  63  94 SE7       30.01S
WINDOM         CLOUDY    63  61  94 SE7       30.04S
WORTHINGTON    CLOUDY    63  63 100 E7        30.04S
JACKSON        CLOUDY    64  59  82 SE8       30.04F
TRACY          CLOUDY    64  61  90 SE5       30.02F
SLAYTON        CLOUDY    63  61  94 CALM      30.04S
$$
MNZ065>067-074>077-082>085-091>093-281200-
   South Central Minnesota

CITY           SKY/WX    TMP DP  RH WIND       PRES   REMARKS
MANKATO        MOCLDY    63  54  72 SE10      30.06S
NEW ULM        MOCLDY    61  61 100 SE6       30.05S
ST JAMES       MOCLDY    63  59  88 E6        30.05F
FAIRMONT       CLOUDY    61  57  88 SE5       30.04F
GLENCOE        PTCLDY    59  56  87 CALM      30.07R
FARIBAULT      MOCLDY    63  55  77 E3        30.09R
OWATONNA       MOCLDY    61  57  88 E6        30.08S
WASECA         MOCLDY    59  54  82 E6        30.09S
ALBERT LEA     MOCLDY    63  59  88 SE6       30.07F
$$
MNZ078>079-086>088-094>096-281200-
   Southeast Minnesota

CITY           SKY/WX    TMP DP  RH WIND       PRES   REMARKS
ROCHESTER      PTCLDY    58  56  93 SE6       30.11S
RED WING       CLEAR     59  55  88 E5        30.09S
STANTON        PTCLDY    57  55  92 CALM      30.07F
DODGE CENTER   PTCLDY    57  55  94 E6        30.09F
WINONA         CLEAR     59  59 100 SE3       30.11S
AUSTIN         MOCLDY    59  57  94 E6        30.08S
PRESTON        PTCLDY    57  58 100 CALM      30.11S
$$
ABBREVIATIONS USED IN REMARKS
   TC - TEMPERATURES IN CELSIUS
  WCI - WIND CHILL INDEX
   HX - HEAT INDEX
  VSB - VISIBILITY
$$


USA.gov is the U.S. government's official web portal to all federal, state and local government web resources and services.